Tracking 29510 objects as of 16-Sep-2024
HD Live streaming from Space Station
objects crossing your sky now

FENGYUN 1C DEB

Track FENGYUN 1C DEB now!
10-day predictions


NORAD ID: 35152
Int'l Code: 1999-025DMG
Perigee: 842.6 km
Apogee: 1,132.0 km
Inclination: 99.8 °
Period: 104.7 minutes
Semi major axis: 7358 km
RCS: 0.009 m2 (small)
Launch date: May 10, 1999
Source: People's Republic of China (PRC)
Launch site: Taiyaun Space Center, China (TSC)

Note: This is SATELLITE DEBRIS
Your satellite tracking list
Your tracking list is empty




NASA's NSSDC Master Catalog

Two Line Element Set (TLE):
1 35152U 99025DMG 24259.19389116  .00002597  00000-0  23864-2 0  9999
2 35152  99.8009  62.1025 0196678 108.7637 253.4962 13.75427259843010
Source of the keplerian elements: AFSPC